Weather History for Winner, SD

Change the Weather History Date:

Friday, November 30, 2012

  Actual Average Record
Temperature  
Mean Temperature 37 °F 29 °F  
Max Temperature 58 °F 38 °F 58 °F (2012)
Min Temperature 16 °F 19 °F 7 °F (2007)
Degree Days  
Heating Degree Days 28 36  
Month to date heating degree days 776 873  
Since 1 July heating degree days 1321 1471  
Cooling Degree Days 0 0  
Month to date cooling degree days 0 0  
Year to date cooling degree days 1470 916  
Moisture  
Dew Point 25 °F    
Average Humidity 66    
Maximum Humidity 92    
Minimum Humidity 40    
Precipitation  
Precipitation 0.00 in 0.01 in 0.02 in (2008)
Month to date precipitation 0.01 0.62  
Year to date precipitation 10.16 21.25  
Sea Level Pressure  
Sea Level Pressure 29.99 in    
Wind  
Wind Speed 13 mph (South)    
Max Wind Speed 29 mph    
Max Gust Speed 36 mph    
Visibility 9 miles    
Events      
T = Trace of Precipitation, MM = Missing Value Source: NWS Daily Summary

Daily Weather History Graph

Daily Weather History Graph

Search for Another Location

Airport:

Trip Planner

Search our weather history database for the weather conditions in past years. The results will help you decide how hot, cold, wet, or windy it might be!

Date:

Astronomy

Nov. 30, 2012 Rise Set
Actual Time 7:51 AM CST 5:04 PM CST
Civil Twilight 7:19 AM CST 5:36 PM CST
Nautical Twilight 6:44 AM CST 6:12 PM CST
Astronomical Twilight 6:09 AM CST 6:46 PM CST
Moon 7:01 PM CST (11/30) 9:24 AM CST (11/30)
Length of Visible Light 10h 17m
Length of Day
9h 13m
Waning Gibbous, 96% of the Moon is Illuminated
Nov 30
Waning Gibbous
Dec 6
Last Quarter
Dec 13
New
Dec 19
First Quarter
Dec 28
Full

Hourly Weather History & Observations

Time (CST) Temp. Windchill Dew Point Humidity Pressure Visibility Wind Dir Wind Speed Gust Speed Precip Events Conditions
12:53 AM 19.0 °F 10.0 °F 17.1 °F 92% 30.11 in 7.0 mi WSW 6.9 mph - N/A   Clear
1:53 AM 19.9 °F 13.4 °F 17.1 °F 89% 30.09 in 7.0 mi WSW 4.6 mph - N/A   Clear
2:53 AM 19.9 °F 11.1 °F 17.1 °F 89% 30.12 in 7.0 mi West 6.9 mph - N/A   Clear
3:53 AM 19.9 °F - 18.0 °F 92% 30.11 in 7.0 mi Calm Calm - N/A   Clear
4:53 AM 16.0 °F 8.8 °F 14.0 °F 92% 30.11 in 6.0 mi SSE 4.6 mph - N/A   Clear
5:53 AM 18.0 °F 8.7 °F 15.1 °F 88% 30.10 in 7.0 mi SSE 6.9 mph - N/A   Clear
6:53 AM 21.9 °F 13.4 °F 19.0 °F 89% 30.11 in 8.0 mi South 6.9 mph - N/A   Clear
7:53 AM 21.0 °F 12.4 °F 18.0 °F 88% 30.11 in 7.0 mi SSE 6.9 mph - N/A   Clear
8:53 AM 27.0 °F 17.3 °F 23.0 °F 85% 30.11 in 7.0 mi South 10.4 mph - N/A   Clear
9:53 AM 30.9 °F 24.3 °F 25.0 °F 79% 30.10 in 8.0 mi SSE 6.9 mph - N/A   Clear
10:53 AM 36.0 °F 31.1 °F 28.0 °F 73% 30.09 in 10.0 mi SSE 5.8 mph - N/A   Clear
11:53 AM 46.0 °F 39.9 °F 28.9 °F 51% 30.03 in 10.0 mi SE 13.8 mph - N/A   Clear
12:53 PM 51.1 °F - 30.0 °F 44% 29.96 in 10.0 mi SSE 15.0 mph 21.9 mph N/A   Clear
1:53 PM 55.0 °F - 32.0 °F 42% 29.91 in 10.0 mi SSE 16.1 mph 24.2 mph N/A   Clear
2:53 PM 57.0 °F - 34.0 °F 42% 29.88 in 10.0 mi SSE 21.9 mph 28.8 mph N/A   Clear
3:53 PM 55.9 °F - 34.0 °F 44% 29.88 in 10.0 mi SSE 13.8 mph 24.2 mph N/A   Clear
4:53 PM 53.1 °F - 34.0 °F 48% 29.89 in 10.0 mi SSE 15.0 mph 23.0 mph N/A   Clear
5:53 PM 48.0 °F - 32.0 °F 54% 29.88 in 10.0 mi SE 13.8 mph - N/A   Clear
6:53 PM 48.0 °F - 30.9 °F 52% 29.84 in 10.0 mi SSE 20.7 mph 29.9 mph N/A   Clear
7:53 PM 46.0 °F 37.8 °F 30.9 °F 56% 29.84 in 10.0 mi South 23.0 mph 28.8 mph N/A   Clear
8:53 PM 46.0 °F 37.8 °F 30.9 °F 56% 29.81 in 10.0 mi South 23.0 mph 33.4 mph N/A   Clear
9:53 PM 46.0 °F 37.6 °F 30.9 °F 56% 29.78 in 10.0 mi South 24.2 mph 35.7 mph N/A   Clear